Tracking 17844 objects as of 23-August-2016
HD Live streaming from Space Station
objects crossing your sky now

IRIDIUM 33 DEB

Track IRIDIUM 33 DEB now!
10-day predictions


NORAD ID: 33869
Int'l Code: 1997-051AN
Perigee: 719.5 km
Apogee: 832.0 km
Inclination: 86.4 °
Period: 100.2 minutes
Semi major axis: 7146 km
RCS: 0.08 m2 (small)
Launch date: September 14, 1997
Source: United States (US)
Launch site: TYURATAM MISSILE AND SPACE COMPLEX (TTMTR)

Note: This is SATELLITE DEBRIS
Your satellite tracking list
Your tracking list is empty





NASA's NSSDC Master Catalog

Two Line Element Set (TLE):
1 33869U 97051AN  16236.51001284  .00001853  00000-0  59794-3 0  9994
2 33869  86.3633  67.2217 0078729 260.2034  99.0267 14.36953586390864
Source of the keplerian elements: AFSPC

N2YO: 637